Flag Weather past 2 weeks in Alexandria, Virginia, U.S.A.

Now
48 °F

Overcast.


Feels Like: 46 °F
Forecast: 41 / 59 °F
Wind: 5 mph from Northeast

Location: Reagan National Airport

Current Time: Oct 31, 2014 at 8:22:21 AM

Latest Report: Oct 31, 2014 at 7:52 AM


Visibility: 10 mi

Pressure: 30.01 "Hg

Humidity: 66%

Dew point: 37 °F

Location of AlexandriaLocation

Historic Weather in Alexandria — Graph

°F

Alexandria temperature yesterday

Maximum temperature yesterday: 62 °F (at 2:52 PM)
Minimum temperature yesterday: 50 °F (at 3:52 AM)
Average temperature yesterday: 55 °F

Past Weeks' High & Low Weather Summary

 TemperatureHumidityPressure
High78 °F (Oct 28, 2:52 PM)86% (Oct 16, 7:52 AM)30.14 "Hg (Oct 16, 7:52 AM)
Low46 °F (Oct 20, 6:52 AM)19% (Oct 26, 2:52 PM)29.64 "Hg (Oct 18, 4:52 AM)
Average61 °F57%29.91 "Hg
* Reported Oct 16 6:52 AM — Oct 31 6:52 AM, Alexandria, Weather by CustomWeather, © 2014

Note: Actual official high and low records may vary slightly from our data, if they occured in-between our weather recording intervals... More about our weather records

Advertising

Alexandria weather history for previous 24 hours

 ConditionsComfort  
Time TempWeatherWind HumidityBarometerVisibility
6:52 AM
Oct 31
49 °FPassing clouds.3 mph64%30.00 "Hg10 mi
5:52 AM49 °FPassing clouds.5 mph71%30.02 "Hg10 mi
4:52 AM48 °FPassing clouds.5 mph71%30.02 "Hg10 mi
3:52 AM48 °FPassing clouds.3 mph63%30.02 "Hg10 mi
2:52 AM48 °FPassing clouds.No wind66%30.03 "Hg10 mi
1:52 AM49 °FPassing clouds.3 mph61%30.03 "Hg10 mi
12:52 AM49 °FPassing clouds.6 mph61%30.04 "Hg10 mi
11:52 PM
Oct 30
50 °FPassing clouds.7 mph59%30.05 "Hg10 mi
10:52 PM53 °FPassing clouds.7 mph52%30.05 "Hg10 mi
9:52 PM55 °FPassing clouds.9 mph49%30.06 "Hg10 mi
8:52 PM56 °FOvercast.8 mph47%30.06 "Hg10 mi
7:52 PM57 °FOvercast.10 mph46%30.06 "Hg10 mi
6:52 PM56 °FBroken clouds.7 mph49%30.05 "Hg10 mi
5:52 PM58 °FPartly sunny.9 mph46%30.04 "Hg10 mi
4:52 PM59 °FPartly sunny.10 mph44%30.03 "Hg10 mi
3:52 PM62 °FBroken clouds.12 mph38%30.02 "Hg10 mi
2:52 PM62 °FScattered clouds.10 mph39%30.02 "Hg10 mi
1:52 PM60 °FScattered clouds.7 mph41%30.04 "Hg10 mi
12:52 PM61 °FScattered clouds.10 mph42%30.06 "Hg10 mi
11:52 AM59 °FPassing clouds.15 mph46%30.08 "Hg10 mi
10:52 AM57 °FScattered clouds.14 mph49%30.08 "Hg10 mi
9:52 AM54 °FScattered clouds.14 mph55%30.08 "Hg10 mi
8:52 AM54 °FScattered clouds.14 mph53%30.07 "Hg10 mi
Weather by CustomWeather, © 2014

See weather overviewHow to use our weather pages